Location: Armstrong Village
(14.3346°N, 120.9854°E)
Time: 12:58:04
(UTC+00:00)

Cosmos 1821 Rocket - Pass Details

Date: 20 April 2026
Orbit: 945 x 1003 km, 82.9° (Epoch: 12 May)

Event Time Altitude Azimuth Distance (km) Brightness Sun altitude
Rises 11:36:38 0° 179° (S) 3,628 6.8 -20.9°
Reaches altitude 10° 11:39:07 10° 177° (S) 2,690 6.1 -21.5°
Maximum altitude 11:45:16 75° 93° (E) 1,005 3.8 -22.9°
Drops below altitude 10° 11:51:30 10° 9° (N) 2,732 6.5 -24.3°
Sets 11:54:02 0° 7° (N) 3,689 7.2 -24.9°
